STARLINK-1512 (45785 NORAD) Tracking and Keplerian Element Data

This shows tracking and keplerian element data for the satellite.

Feedback or suggestion? Click here.




ElementValue
Catalog45785
NameSTARLINK-1512
Epoch Orbit182
Epoch Day191.91670139
Epoch Year2020
RAAN166.1559
Inclination53.0017
Eccentricity0.0001328
Argument of Perigee84.1006
Mean Anonmoly27.1604
Mean Motion15.62735673
Decay Rate0.00028608
L11 45785U 20038BH 20191.91670139 .00028608 00000-0 31737-3 0 9999
L22 45785 53.0017 166.1559 0001328 84.1006 27.1604 15.62735673 1829

Live tracking and technical data element details for STARLINK-1512 (NORAD 45785). STARLINK-1512 can be tracked NOW for your location showing map with azimuth and elevation plus other details from your city location.

Track the satellite on the map from your city or location and see movement details for azimuth, elevation, latitude, longitude, range, height, and movement on the map or in text.







IsCatalogInMostPopularTable: catalog: 45785, numindb: 9
Update: records affected: 1



GetName: 45785 STARLINK-1512

Hit Count: updated at: Fri, 10 Jul 2020 15:05:42 GMT